Location: Gro�sch�nbrunn
(49.5760°N, 11.8868°E)
Time: 01:19:07
(UTC+00:00)

Cosmos 1805 - Pass Details

Date: 18 September 2020
Orbit: 524 x 531 km, 82.5° (Epoch: 30 October)

Event Time Altitude Azimuth Distance (km) Brightness Sun altitude
Exits shadow 19:01:13 30° 74° (ENE) 982 4.2 -17.0°
Drops below altitude 10° 19:04:10 10° 29° (NNE) 1,792 5.9 -17.4°
Sets 19:06:29 0° 19° (NNE) 2,689 6.9 -17.8°
